Weather History for Point Mugu, CA

Change the Weather History Date:

Sunday, November 13, 2011

  Actual Average Record
Temperature  
Mean Temperature 58 °F -  
Max Temperature 68 °F 66 °F 84 °F (2013)
Min Temperature 48 °F 47 °F 33 °F (1996)
Degree Days  
Heating Degree Days 7    
Growing Degree Days 8 (Base 50)    
Moisture  
Dew Point 49 °F    
Average Humidity 77    
Maximum Humidity 96    
Minimum Humidity 45    
Precipitation  
Precipitation 0.00 in - - ()
Sea Level Pressure  
Sea Level Pressure 29.91 in    
Wind  
Wind Speed 5 mph (NNW)    
Max Wind Speed 8 mph    
Max Gust Speed -    
Visibility 8 miles    
Events      
Averages and records for this station are not official NWS values.
T = Trace of Precipitation, MM = Missing Value Source: NWS Daily Summary

Daily Weather History Graph

Daily Weather History Graph

Search for Another Location

Airport:

Trip Planner

Search our weather history database for the weather conditions in past years. The results will help you decide how hot, cold, wet, or windy it might be!

Date:

Astronomy

Nov. 13, 2011 Rise Set
Actual Time 6:27 AM PST 4:53 PM PST
Civil Twilight 6:00 AM PST 5:20 PM PST
Nautical Twilight 5:30 AM PST 5:50 PM PST
Astronomical Twilight 5:00 AM PST 6:20 PM PST
Moon 7:11 PM PST (11/13) 8:59 AM PST (11/13)
Length of Visible Light 11h 19m
Length of Day
10h 26m
Waning Gibbous, 92% of the Moon is Illuminated
Nov 13
Waning Gibbous
Nov 18
Last Quarter
Nov 24
New
Dec 2
First Quarter
Dec 10
Full

Hourly Weather History & Observations

Time (PST) Temp. Dew Point Humidity Pressure Visibility Wind Dir Wind Speed Gust Speed Precip Events Conditions
12:54 AM 55.0 °F 48.9 °F 80% 29.85 in 10.0 mi NNE 5.8 mph - N/A   Clear
1:54 AM 53.1 °F 48.0 °F 83% 29.86 in 10.0 mi North 5.8 mph - N/A   Clear
2:54 AM 51.1 °F 46.9 °F 86% 29.85 in 10.0 mi Calm Calm - N/A   Clear
3:54 AM 48.9 °F 46.0 °F 90% 29.86 in 10.0 mi ENE 5.8 mph - N/A   Unknown
4:54 AM 53.1 °F 45.0 °F 74% 29.86 in 10.0 mi North 5.8 mph - N/A   Clear
5:54 AM 52.0 °F 44.1 °F 74% 29.87 in 7.0 mi WNW 5.8 mph - N/A   Mostly Cloudy
6:54 AM 52.0 °F 44.1 °F 74% 29.89 in 7.0 mi North 3.5 mph - N/A   Scattered Clouds
7:54 AM 54.0 °F 46.0 °F 75% 29.91 in 7.0 mi NNE 3.5 mph - N/A   Scattered Clouds
8:54 AM 61.0 °F 48.9 °F 64% 29.91 in 7.0 mi North 6.9 mph - N/A   Mostly Cloudy
9:54 AM 66.9 °F 48.9 °F 52% 29.92 in 7.0 mi Calm Calm - N/A   Mostly Cloudy
10:54 AM 68.0 °F 46.0 °F 45% 29.92 in 7.0 mi NW 3.5 mph - N/A   Mostly Cloudy
11:54 AM 66.0 °F 55.0 °F 68% 29.92 in 7.0 mi West 8.1 mph - N/A   Mostly Cloudy
12:54 PM 64.0 °F 52.0 °F 65% 29.89 in 7.0 mi West 5.8 mph - N/A   Mostly Cloudy
1:54 PM 64.9 °F 48.9 °F 56% 29.90 in 7.0 mi West 5.8 mph - N/A   Mostly Cloudy
2:54 PM 64.0 °F 51.1 °F 63% 29.90 in 7.0 mi West 5.8 mph - N/A   Mostly Cloudy
3:54 PM 61.0 °F 53.1 °F 75% 29.91 in 7.0 mi West 4.6 mph - N/A   Scattered Clouds
4:54 PM 57.9 °F 52.0 °F 81% 29.92 in 7.0 mi Calm Calm - N/A   Scattered Clouds
5:54 PM 57.0 °F 55.0 °F 93% 29.94 in 4.0 mi Calm Calm - N/A   Partly Cloudy
6:54 PM 53.1 °F 52.0 °F 96% 29.94 in 6.0 mi East 3.5 mph - N/A   Clear
7:54 PM 53.1 °F 50.0 °F 89% 29.95 in 10.0 mi NNE 4.6 mph - N/A   Clear
8:54 PM 51.1 °F 48.9 °F 92% 29.96 in 10.0 mi NNE 3.5 mph - N/A   Clear
9:54 PM 52.0 °F 48.9 °F 89% 29.96 in 10.0 mi North 5.8 mph - N/A   Clear
10:54 PM 51.1 °F 48.0 °F 89% 29.97 in 10.0 mi North 4.6 mph - N/A   Clear
11:54 PM 51.1 °F 46.9 °F 86% 29.96 in 10.0 mi North 5.8 mph - N/A   Clear